Location: Casteau
(50.5142°N, 4.0161°E)
Time: 02:39:07
(UTC+00:00)

Explorer 11/Cluster Stage 4 - Pass Details

Date: 03 August 2021
Orbit: 467 x 1257 km, 28.8° (Epoch: 18 September)

Event Time Altitude Azimuth Distance (km) Brightness Sun altitude
Rises 11:16:19 0° 241° (WSW) 4,186 10.4 56.2°
Reaches altitude 10° 11:21:43 10° 213° (SSW) 3,218 10.2 56.4°
Maximum altitude 11:24:19 12° 194° (SSW) 3,057 10.3 56.5°
Drops below altitude 10° 11:26:52 10° 175° (S) 3,154 10.4 56.5°
Sets 11:32:01 0° 147° (SSE) 3,991 10.6 56.7°
